• In Hungary
  • List of Countries
  • For 7 days
  • Water Temperature
  • Satellite Maps
  • Weather Map
  • News
  • Weather Widgets
  • user-avatar
    Login

    Hourly Weather Ambor

    Today, 20 September, Wednesday

    Time Temperature Precipitation Wind Pressure Humidity
    00:00 +27°C° 0 mm 4 mps 754 mmHg 97%
    01:00 +27°C° 0 mm 4 mps 754 mmHg 97%
    02:00 +27°C° 0 mm 4 mps 754 mmHg 97%
    03:00 +27°C° 0 mm 4 mps 753 mmHg 97%
    04:00 +27°C° 0.1 mm 4 mps 753 mmHg 97%
    05:00 +27°C° 0.1 mm 4 mps 753 mmHg 97%
    06:00 +27°C° 0.1 mm 4 mps 753 mmHg 96%
    07:00 +27°C° 0.7 mm 4 mps 754 mmHg 96%
    08:00 +27°C° 0.7 mm 4 mps 754 mmHg 95%
    09:00 +27°C° 0 mm 3 mps 755 mmHg 94%
    10:00 +28°C° 1.3 mm 3 mps 754 mmHg 93%
    11:00 +28°C° 1.3 mm 3 mps 754 mmHg 92%
    12:00 +29°C° 1.3 mm 2 mps 754 mmHg 92%
    13:00 +28°C° 1.2 mm 2 mps 753 mmHg 93%
    14:00 +28°C° 1.2 mm 2 mps 753 mmHg 94%
    15:00 +28°C° 0 mm 3 mps 752 mmHg 95%
    16:00 +28°C° 0.8 mm 3 mps 753 mmHg 96%
    17:00 +28°C° 0.8 mm 3 mps 753 mmHg 97%
    18:00 +28°C° 0.8 mm 2 mps 753 mmHg 98%
    19:00 +28°C° 0.7 mm 3 mps 753 mmHg 99%
    20:00 +27°C° 0.7 mm 3 mps 753 mmHg 99%
    21:00 +27°C° 0 mm 2 mps 754 mmHg 99%
    22:00 +27°C° 1.2 mm 2 mps 753 mmHg 99%
    23:00 +27°C° 1.2 mm 3 mps 753 mmHg 99%

    Tomorrow, 21 September, Thursday

    Time Temperature Precipitation Wind Pressure Humidity
    00:00 +27°C° 1.2 mm 3 mps 753 mmHg 99%
    01:00 +27°C° 1.9 mm 3 mps 753 mmHg 98%
    02:00 +27°C° 1.9 mm 3 mps 753 mmHg 98%
    03:00 +27°C° 1.9 mm 3 mps 753 mmHg 97%
    04:00 +27°C° 1.5 mm 3 mps 753 mmHg 97%
    05:00 +27°C° 1.5 mm 4 mps 753 mmHg 97%
    06:00 +27°C° 1.5 mm 4 mps 753 mmHg 97%
    07:00 +28°C° 1.6 mm 4 mps 753 mmHg 95%
    08:00 +29°C° 1.6 mm 4 mps 753 mmHg 93%
    09:00 +29°C° 1.6 mm 4 mps 754 mmHg 91%
    10:00 +30°C° 2 mm 5 mps 753 mmHg 89%
    11:00 +32°C° 2 mm 5 mps 753 mmHg 87%
    12:00 +33°C° 2 mm 5 mps 753 mmHg 85%
    13:00 +30°C° 2.3 mm 5 mps 753 mmHg 89%
    14:00 +29°C° 2.3 mm 5 mps 752 mmHg 93%
    15:00 +28°C° 2.3 mm 5 mps 752 mmHg 97%
    16:00 +28°C° 2 mm 5 mps 752 mmHg 97%
    17:00 +28°C° 2 mm 5 mps 752 mmHg 98%
    18:00 +27°C° 2 mm 5 mps 752 mmHg 98%
    19:00 +27°C° 1 mm 4 mps 753 mmHg 98%
    20:00 +27°C° 1 mm 4 mps 753 mmHg 99%
    21:00 +27°C° 1 mm 4 mps 753 mmHg 99%
    22:00 +27°C° 0.4 mm 4 mps 754 mmHg 99%
    23:00 +27°C° 0.4 mm 4 mps 754 mmHg 99%

    Day after tomorrow, 22 September, Friday

    Time Temperature Precipitation Wind Pressure Humidity
    00:00 +27°C° 0.4 mm 4 mps 754 mmHg 99%
    01:00 +27°C° 0.5 mm 3 mps 753 mmHg 99%
    02:00 +27°C° 0.5 mm 3 mps 753 mmHg 99%
    03:00 +27°C° 0.5 mm 3 mps 753 mmHg 98%
    04:00 +27°C° 0.4 mm 2 mps 753 mmHg 98%
    05:00 +27°C° 0.4 mm 2 mps 753 mmHg 98%
    06:00 +27°C° 0.4 mm 2 mps 753 mmHg 97%
    07:00 +28°C° 0.5 mm 2 mps 753 mmHg 94%
    08:00 +29°C° 0.5 mm 3 mps 754 mmHg 92%
    09:00 +30°C° 0.5 mm 3 mps 754 mmHg 89%
    10:00 +30°C° 1 mm 3 mps 754 mmHg 90%
    11:00 +30°C° 1 mm 3 mps 754 mmHg 90%
    12:00 +30°C° 1 mm 3 mps 754 mmHg 91%
    13:00 +29°C° 1.6 mm 3 mps 753 mmHg 92%
    14:00 +29°C° 1.6 mm 3 mps 753 mmHg 93%
    15:00 +29°C° 1.6 mm 3 mps 753 mmHg 94%
    16:00 +28°C° 2.3 mm 3 mps 753 mmHg 96%
    17:00 +28°C° 2.3 mm 3 mps 753 mmHg 97%
    18:00 +27°C° 2.3 mm 3 mps 753 mmHg 98%
    19:00 +27°C° 0.8 mm 2 mps 753 mmHg 98%
    20:00 +27°C° 0.8 mm 2 mps 754 mmHg 98%
    21:00 +27°C° 0.8 mm 2 mps 754 mmHg 98%
    22:00 +27°C° 0 mm 2 mps 755 mmHg 98%
    23:00 +27°C° 0 mm 1 mps 755 mmHg 99%

    23 September, Saturday

    Time Temperature Precipitation Wind Pressure Humidity
    00:00 +27°C° 0 mm 1 mps 755 mmHg 99%
    01:00 +27°C° 0.1 mm 1 mps 754 mmHg 99%
    02:00 +27°C° 0.1 mm 2 mps 754 mmHg 99%
    03:00 +27°C° 0.1 mm 2 mps 753 mmHg 99%
    04:00 +27°C° 0.1 mm 2 mps 754 mmHg 99%
    05:00 +27°C° 0.1 mm 1 mps 754 mmHg 99%
    06:00 +27°C° 0.1 mm 1 mps 754 mmHg 99%
    07:00 +28°C° 0.1 mm 1 mps 754 mmHg 96%
    08:00 +29°C° 0.1 mm 1 mps 755 mmHg 93%
    09:00 +30°C° 0.1 mm 1 mps 755 mmHg 90%
    10:00 +30°C° 1.1 mm 1 mps 755 mmHg 89%
    11:00 +30°C° 1.1 mm 1 mps 755 mmHg 89%
    12:00 +30°C° 1.1 mm 1 mps 755 mmHg 88%
    13:00 +30°C° 1.2 mm 2 mps 754 mmHg 89%
    14:00 +30°C° 1.2 mm 2 mps 753 mmHg 90%
    15:00 +30°C° 1.2 mm 2 mps 753 mmHg 90%
    16:00 +29°C° 1.1 mm 2 mps 753 mmHg 92%
    17:00 +28°C° 1.1 mm 2 mps 753 mmHg 94%
    18:00 +28°C° 1.1 mm 2 mps 753 mmHg 96%
    19:00 +28°C° 1 mm 1 mps 754 mmHg 96%
    20:00 +27°C° 1 mm 1 mps 754 mmHg 97%
    21:00 +27°C° 1 mm 1 mps 755 mmHg 97%
    22:00 +27°C° 0.5 mm 1 mps 755 mmHg 97%
    23:00 +26°C° 0.5 mm 1 mps 755 mmHg 97%

    24 September, Sunday

    Time Temperature Precipitation Wind Pressure Humidity
    00:00 +26°C° 0.5 mm 1 mps 755 mmHg 97%
    01:00 +26°C° 0.5 mm 1 mps 754 mmHg 97%
    02:00 +26°C° 0.5 mm 2 mps 754 mmHg 97%
    03:00 +26°C° 0.5 mm 2 mps 754 mmHg 97%
    04:00 +26°C° 0.8 mm 1 mps 754 mmHg 97%
    05:00 +27°C° 0.8 mm 1 mps 754 mmHg 96%
    06:00 +27°C° 0.8 mm 1 mps 754 mmHg 96%
    07:00 +27°C° 0.4 mm 1 mps 755 mmHg 95%
    08:00 +27°C° 0.4 mm 1 mps 755 mmHg 95%
    09:00 +28°C° 0.4 mm 1 mps 755 mmHg 95%
    10:00 +28°C° 0 mm 1 mps 755 mmHg 95%
    11:00 +28°C° 0 mm 1 mps 755 mmHg 95%
    12:00 +28°C° 0 mm 2 mps 754 mmHg 95%
    13:00 +28°C° 0 mm 2 mps 754 mmHg 94%
    14:00 +28°C° 0 mm 2 mps 753 mmHg 94%
    15:00 +28°C° 0 mm 2 mps 752 mmHg 93%
    16:00 +28°C° 0 mm 2 mps 752 mmHg 94%
    17:00 +28°C° 0 mm 2 mps 753 mmHg 94%
    18:00 +27°C° 0 mm 2 mps 753 mmHg 94%
    19:00 +27°C° 0.4 mm 2 mps 753 mmHg 95%
    20:00 +27°C° 0.4 mm 2 mps 754 mmHg 96%
    21:00 +27°C° 0.4 mm 2 mps 754 mmHg 97%
    22:00 +27°C° 0.3 mm 2 mps 754 mmHg 96%
    23:00 +27°C° 0.3 mm 2 mps 754 mmHg 96%

    25 September, Monday

    Time Temperature Precipitation Wind Pressure Humidity
    00:00 +27°C° 0.3 mm 2 mps 754 mmHg 96%
    01:00 +26°C° 0.1 mm 2 mps 753 mmHg 96%
    02:00 +26°C° 0.1 mm 2 mps 753 mmHg 96%
    03:00 +26°C° 0.1 mm 2 mps 752 mmHg 96%
    04:00 +26°C° 0.4 mm 2 mps 753 mmHg 97%
    05:00 +27°C° 0.4 mm 2 mps 753 mmHg 97%
    06:00 +27°C° 0.4 mm 2 mps 753 mmHg 97%
    07:00 +27°C° 0.5 mm 2 mps 754 mmHg 95%
    08:00 +28°C° 0.5 mm 2 mps 754 mmHg 93%
    09:00 +29°C° 0.5 mm 2 mps 754 mmHg 91%
    10:00 +30°C° 0.5 mm 3 mps 754 mmHg 89%
    11:00 +30°C° 0.5 mm 3 mps 754 mmHg 87%
    12:00 +31°C° 0.5 mm 3 mps 753 mmHg 84%
    13:00 +31°C° 0.2 mm 3 mps 753 mmHg 85%
    14:00 +31°C° 0.2 mm 3 mps 752 mmHg 86%
    15:00 +31°C° 0.2 mm 3 mps 752 mmHg 87%
    16:00 +30°C° 0.4 mm 3 mps 752 mmHg 90%
    17:00 +29°C° 0.4 mm 3 mps 752 mmHg 93%
    18:00 +28°C° 0.4 mm 3 mps 752 mmHg 95%
    19:00 +28°C° 0.4 mm 2 mps 753 mmHg 96%
    20:00 +27°C° 0.4 mm 2 mps 753 mmHg 97%
    21:00 +27°C° 0.4 mm 2 mps 754 mmHg 98%
    22:00 +27°C° 0.2 mm 2 mps 754 mmHg 98%
    23:00 +27°C° 0.2 mm 2 mps 754 mmHg 98%
    Show more